�������l�o���
Date,Time,MP-1(��Sv/h),MP-2(��Sv/h),MP-3(��Sv/h),MP-4(��Sv/h),MP-5(��Sv/h),MP-6(��Sv/h),MP-7(��Sv/h),MP-8(��Sv/h),����,����(m/s),���J
2019/04/14,00:00,0.759,1.110,0.765,1.406,1.028,0.435,0.769,0.731,��쐼,6.2,��
2019/04/14,00:10,0.759,1.112,0.764,1.409,1.028,0.435,0.770,0.731,��,5.3,��
2019/04/14,00:20,0.759,1.111,0.764,1.409,1.029,0.434,0.767,0.730,��,5.2,��
2019/04/14,00:30,0.758,1.111,0.764,1.409,1.027,0.435,0.769,0.730,��,4.8,��
2019/04/14,00:40,0.759,1.113,0.764,1.407,1.029,0.434,0.769,0.729,��,5.2,��
2019/04/14,00:50,0.758,1.110,0.764,1.407,1.028,0.434,0.769,0.730,��,4.6,��
2019/04/14,01:00,0.760,1.112,0.765,1.408,1.027,0.434,0.768,0.730,��,5.2,��
2019/04/14,01:10,0.759,1.112,0.764,1.408,1.029,0.434,0.767,0.730,��,5.8,��
2019/04/14,01:20,0.758,1.112,0.765,1.412,1.029,0.434,0.769,0.730,��,5.6,��
2019/04/14,01:30,0.760,1.110,0.763,1.407,1.028,0.435,0.769,0.730,��,4.0,��
2019/04/14,01:40,0.759,1.111,0.765,1.409,1.028,0.435,0.770,0.728,��,4.1,��
2019/04/14,01:50,0.759,1.111,0.767,1.409,1.031,0.434,0.769,0.729,��,4.0,��
2019/04/14,02:00,0.757,1.110,0.764,1.408,1.030,0.435,0.768,0.728,��,4.3,��
2019/04/14,02:10,0.762,1.113,0.765,1.409,1.029,0.435,0.770,0.729,��,3.6,��
2019/04/14,02:20,0.759,1.112,0.763,1.411,1.029,0.433,0.769,0.730,��,2.6,��
2019/04/14,02:30,0.758,1.110,0.764,1.409,1.028,0.435,0.769,0.730,��쐼,2.0,��
2019/04/14,02:40,0.760,1.113,0.764,1.410,1.028,0.432,0.768,0.730,��쓌,2.3,��
2019/04/14,02:50,0.758,1.114,0.765,1.407,1.028,0.434,0.769,0.730,��,2.5,��
2019/04/14,03:00,0.759,1.112,0.764,1.410,1.028,0.434,0.768,0.731,��,2.6,��
2019/04/14,03:10,0.758,1.111,0.763,1.408,1.029,0.435,0.768,0.730,��,3.9,��
2019/04/14,03:20,0.759,1.112,0.766,1.408,1.029,0.433,0.769,0.731,��,4.8,��
2019/04/14,03:30,0.758,1.111,0.765,1.408,1.031,0.432,0.770,0.729,��,5.5,��
2019/04/14,03:40,0.757,1.112,0.763,1.412,1.028,0.434,0.769,0.730,��,6.3,��
2019/04/14,03:50,0.760,1.112,0.766,1.408,1.030,0.435,0.770,0.731,��,6.5,��
2019/04/14,04:00,0.760,1.114,0.764,1.412,1.029,0.434,0.770,0.731,��,5.8,��
2019/04/14,04:10,0.760,1.113,0.765,1.409,1.026,0.432,0.769,0.732,��,5.7,��
2019/04/14,04:20,0.760,1.113,0.766,1.411,1.032,0.434,0.769,0.730,��,5.7,��
2019/04/14,04:30,0.759,1.110,0.765,1.409,1.030,0.434,0.771,0.729,��쐼,4.9,��
2019/04/14,04:40,0.761,1.112,0.765,1.408,1.029,0.434,0.767,0.731,��쐼,4.6,��
2019/04/14,04:50,0.760,1.112,0.767,1.410,1.029,0.434,0.769,0.730,��,5.5,��
2019/04/14,05:00,0.760,1.113,0.766,1.410,1.030,0.434,0.769,0.731,��쐼,5.6,��
2019/04/14,05:10,0.760,1.112,0.765,1.410,1.029,0.434,0.769,0.731,��쐼,6.5,��
2019/04/14,05:20,0.759,1.113,0.767,1.409,1.030,0.434,0.771,0.731,��쐼,6.4,��
2019/04/14,05:30,0.760,1.113,0.764,1.410,1.030,0.433,0.770,0.730,��쐼,4.5,��
2019/04/14,05:40,0.760,1.113,0.766,1.410,1.029,0.435,0.768,0.731,��,3.2,��
2019/04/14,05:50,0.759,1.112,0.766,1.410,1.030,0.434,0.770,0.731,��쐼,2.6,��
2019/04/14,06:00,0.758,1.112,0.767,1.409,1.031,0.433,0.771,0.731,�쐼,2.9,��
2019/04/14,06:10,0.761,1.112,0.768,1.411,1.030,0.434,0.772,0.732,��쐼,1.7,��
2019/04/14,06:20,0.759,1.113,0.765,1.408,1.028,0.432,0.771,0.731,�쐼,2.0,��
2019/04/14,06:30,0.760,1.111,0.766,1.411,1.031,0.436,0.770,0.731,��쐼,3.1,��
2019/04/14,06:40,0.759,1.112,0.766,1.409,1.031,0.434,0.770,0.730,��,3.7,��
2019/04/14,06:50,0.760,1.112,0.767,1.410,1.029,0.435,0.769,0.731,��,3.9,��
2019/04/14,07:00,0.759,1.110,0.765,1.413,1.027,0.436,0.769,0.729,��,3.9,��
2019/04/14,07:10,0.761,1.113,0.768,1.412,1.031,0.435,0.770,0.731,��,4.3,��
2019/04/14,07:20,0.761,1.114,0.767,1.412,1.030,0.436,0.770,0.730,��,4.3,��
2019/04/14,07:30,0.759,1.115,0.767,1.412,1.026,0.435,0.771,0.731,��쓌,4.8,��
2019/04/14,07:40,0.760,1.112,0.768,1.412,1.030,0.436,0.770,0.730,��쓌,6.3,��
2019/04/14,07:50,0.759,1.117,0.767,1.413,1.031,0.436,0.770,0.731,��쓌,6.4,��
2019/04/14,08:00,0.759,1.114,0.767,1.411,1.032,0.436,0.769,0.732,��쓌,7.3,��
2019/04/14,08:10,0.761,1.114,0.769,1.413,1.030,0.435,0.769,0.731,��쓌,7.7,��
2019/04/14,08:20,0.760,1.113,0.766,1.409,1.030,0.433,0.770,0.730,��쓌,7.2,��
2019/04/14,08:30,0.761,1.116,0.768,1.410,1.031,0.435,0.769,0.730,��쓌,7.3,��
2019/04/14,08:40,0.761,1.111,0.768,1.411,1.031,0.433,0.769,0.728,��쓌,7.8,��
2019/04/14,08:50,0.760,1.113,0.766,1.412,1.029,0.432,0.770,0.730,��,8.0,��
2019/04/14,09:00,0.762,1.114,0.764,1.412,1.034,0.434,0.769,0.731,��쓌,8.9,��
2019/04/14,09:10,0.762,1.114,0.768,1.412,1.029,0.434,0.769,0.729,��쓌,7.4,��
2019/04/14,09:20,0.759,1.113,0.768,1.413,1.033,0.434,0.768,0.728,��쓌,8.5,��
2019/04/14,09:30,0.762,1.115,0.767,1.415,1.033,0.434,0.770,0.728,��쓌,10.5,��
2019/04/14,09:40,0.761,1.118,0.768,1.413,1.031,0.434,0.769,0.728,��쓌,10.6,��
2019/04/14,09:50,0.762,1.118,0.767,1.415,1.032,0.436,0.771,0.728,��쓌,9.4,��
2019/04/14,10:00,0.761,1.117,0.769,1.417,1.030,0.435,0.770,0.727,��쓌,9.2,��
2019/04/14,10:10,0.761,1.117,0.767,1.414,1.030,0.434,0.770,0.727,��쓌,9.5,��
2019/04/14,10:20,0.760,1.117,0.767,1.413,1.029,0.434,0.770,0.728,��쓌,7.7,��
2019/04/14,10:30,0.763,1.117,0.767,1.414,1.032,0.435,0.768,0.729,��쓌,8.8,��
2019/04/14,10:40,0.761,1.117,0.770,1.412,1.032,0.435,0.770,0.730,��쓌,10.0,��
2019/04/14,10:50,0.761,1.117,0.768,1.415,1.028,0.435,0.770,0.729,��쓌,10.6,��
2019/04/14,11:00,0.763,1.116,0.769,1.413,1.030,0.436,0.770,0.730,��쓌,10.5,��
2019/04/14,11:10,0.759,1.116,0.767,1.414,1.030,0.436,0.771,0.728,��쓌,12.0,��
2019/04/14,11:20,0.760,1.118,0.767,1.416,1.032,0.437,0.770,0.728,��쓌,11.3,��
2019/04/14,11:30,0.760,1.119,0.767,1.415,1.034,0.435,0.771,0.729,��쓌,10.8,��
2019/04/14,11:40,0.759,1.117,0.770,1.414,1.035,0.437,0.770,0.730,��,13.5,��
2019/04/14,11:50,0.761,1.116,0.768,1.415,1.031,0.436,0.771,0.728,��쓌,13.6,��
2019/04/14,12:00,0.762,1.117,0.767,1.416,1.030,0.436,0.771,0.729,��쓌,13.6,��
2019/04/14,12:10,0.762,1.118,0.770,1.417,1.033,0.436,0.771,0.729,��,11.8,��
2019/04/14,12:20,0.762,1.119,0.768,1.414,1.032,0.438,0.774,0.728,��,13.6,��
2019/04/14,12:30,0.762,1.120,0.768,1.418,1.032,0.437,0.771,0.729,��,12.7,��
2019/04/14,12:40,0.763,1.118,0.770,1.417,1.034,0.438,0.772,0.730,��쓌,15.5,��
2019/04/14,12:50,0.764,1.118,0.768,1.415,1.034,0.436,0.771,0.730,��쓌,16.4,��
2019/04/14,13:00,0.762,1.116,0.767,1.415,1.032,0.439,0.771,0.730,��쓌,13.0,��
2019/04/14,13:10,0.762,1.119,0.767,1.415,1.034,0.437,0.772,0.730,��,13.1,��
2019/04/14,13:20,0.763,1.119,0.767,1.416,1.034,0.437,0.772,0.730,��쓌,13.5,��
2019/04/14,13:30,0.763,1.121,0.767,1.416,1.034,0.436,0.770,0.730,��쓌,13.8,��
2019/04/14,13:40,0.761,1.119,0.767,1.414,1.035,0.438,0.772,0.729,��쓌,13.8,��
2019/04/14,13:50,0.763,1.120,0.768,1.417,1.034,0.438,0.772,0.729,��,15.5,��
2019/04/14,14:00,0.763,1.120,0.767,1.416,1.036,0.437,0.772,0.730,��,13.5,��
2019/04/14,14:10,0.762,1.120,0.769,1.416,1.034,0.438,0.772,0.729,��쓌,13.2,��
2019/04/14,14:20,0.761,1.121,0.765,1.416,1.035,0.439,0.772,0.729,��,11.7,��
2019/04/14,14:30,0.763,1.119,0.769,1.419,1.035,0.437,0.771,0.731,��쓌,10.7,��
2019/04/14,14:40,0.761,1.122,0.769,1.416,1.036,0.439,0.773,0.730,��,11.6,��
2019/04/14,14:50,0.765,1.120,0.770,1.418,1.037,0.438,0.772,0.731,��,11.8,��
2019/04/14,15:00,0.763,1.120,0.768,1.419,1.035,0.439,0.772,0.731,��,12.8,��
2019/04/14,15:10,0.764,1.122,0.768,1.417,1.038,0.438,0.771,0.729,��쓌,12.1,��
2019/04/14,15:20,0.761,1.121,0.766,1.415,1.036,0.439,0.772,0.731,��,12.0,��
2019/04/14,15:30,0.764,1.123,0.768,1.416,1.036,0.438,0.773,0.731,��쓌,11.3,��
2019/04/14,15:40,0.764,1.119,0.768,1.415,1.037,0.438,0.773,0.731,��,8.3,��
2019/04/14,15:50,0.763,1.121,0.768,1.412,1.036,0.439,0.771,0.729,��,9.4,��
2019/04/14,16:00,0.763,1.119,0.767,1.415,1.036,0.438,0.772,0.730,��,8.8,��
2019/04/14,16:10,0.763,1.119,0.770,1.418,1.038,0.438,0.772,0.730,��,7.8,��
2019/04/14,16:20,0.766,1.121,0.770,1.418,1.035,0.439,0.772,0.730,��,7.1,��
2019/04/14,16:30,0.765,1.122,0.769,1.417,1.039,0.440,0.773,0.730,��쓌,7.9,��
2019/04/14,16:40,0.766,1.122,0.768,1.416,1.036,0.438,0.771,0.730,��쓌,8.4,��
2019/04/14,16:50,0.768,1.122,0.772,1.415,1.034,0.440,0.771,0.730,��쓌,9.0,��
2019/04/14,17:00,0.765,1.121,0.770,1.418,1.038,0.437,0.772,0.730,��,7.7,��
2019/04/14,17:10,0.767,1.121,0.771,1.419,1.036,0.441,0.772,0.730,��,7.6,��
2019/04/14,17:20,0.767,1.123,0.773,1.418,1.036,0.440,0.772,0.732,��,8.2,��
2019/04/14,17:30,0.766,1.124,0.772,1.419,1.036,0.440,0.772,0.733,��,9.0,��
2019/04/14,17:40,0.766,1.126,0.772,1.419,1.036,0.438,0.772,0.731,��,10.2,��
2019/04/14,17:50,0.766,1.125,0.770,1.418,1.036,0.441,0.770,0.731,��,8.5,��
2019/04/14,18:00,0.766,1.126,0.771,1.419,1.034,0.440,0.773,0.732,��,8.9,��
2019/04/14,18:10,0.765,1.126,0.772,1.418,1.037,0.440,0.771,0.732,��,8.8,��
2019/04/14,18:20,0.766,1.125,0.770,1.420,1.036,0.439,0.772,0.733,��,8.9,��
2019/04/14,18:30,0.764,1.127,0.769,1.417,1.037,0.440,0.770,0.733,��,8.9,��
2019/04/14,18:40,0.765,1.125,0.768,1.417,1.038,0.439,0.770,0.733,��,8.9,��
2019/04/14,18:50,0.764,1.121,0.772,1.417,1.039,0.439,0.773,0.732,��,8.3,��
2019/04/14,19:00,0.766,1.122,0.770,1.418,1.038,0.441,0.772,0.732,��,8.7,��
2019/04/14,19:10,0.766,1.123,0.771,1.417,1.041,0.441,0.774,0.734,��,9.2,��
2019/04/14,19:20,0.767,1.124,0.770,1.417,1.039,0.441,0.774,0.732,��,7.9,��
2019/04/14,19:30,0.767,1.125,0.771,1.418,1.039,0.440,0.773,0.734,��,6.1,��
2019/04/14,19:40,0.766,1.126,0.771,1.417,1.038,0.440,0.773,0.734,��쐼,7.7,��
2019/04/14,19:50,0.766,1.125,0.772,1.420,1.041,0.440,0.774,0.733,��,8.2,��
2019/04/14,20:00,0.769,1.123,0.773,1.419,1.038,0.441,0.773,0.733,��,8.0,��
2019/04/14,20:10,0.765,1.124,0.771,1.416,1.037,0.440,0.774,0.733,��,8.3,��
2019/04/14,20:20,0.765,1.126,0.770,1.416,1.038,0.440,0.772,0.734,��,8.7,�L
2019/04/14,20:30,0.765,1.123,0.772,1.417,1.039,0.440,0.774,0.735,��,9.5,�L
2019/04/14,20:40,0.768,1.125,0.770,1.417,1.041,0.440,0.774,0.734,��,10.3,�L
2019/04/14,20:50,0.766,1.123,0.771,1.421,1.043,0.440,0.773,0.735,��,9.7,�L
2019/04/14,21:00,0.767,1.126,0.772,1.419,1.039,0.441,0.774,0.733,��,9.8,�L
2019/04/14,21:10,0.767,1.124,0.773,1.417,1.038,0.441,0.775,0.734,��,10.3,�L
2019/04/14,21:20,0.767,1.125,0.771,1.422,1.039,0.440,0.772,0.732,��,11.4,�L
2019/04/14,21:30,0.765,1.123,0.773,1.417,1.039,0.438,0.773,0.734,��,11.3,�L
2019/04/14,21:40,0.763,1.124,0.771,1.416,1.039,0.440,0.772,0.733,��,10.0,�L
2019/04/14,21:50,0.765,1.121,0.772,1.419,1.039,0.440,0.773,0.733,��,11.1,�L
2019/04/14,22:00,0.765,1.121,0.769,1.415,1.037,0.441,0.772,0.732,��,11.3,�L
2019/04/14,22:10,0.763,1.121,0.772,1.419,1.034,0.440,0.771,0.732,��쓌,11.4,�L
2019/04/14,22:20,0.764,1.122,0.770,1.417,1.032,0.442,0.772,0.732,��,11.3,�L
2019/04/14,22:30,0.765,1.120,0.770,1.418,1.032,0.441,0.772,0.733,��쓌,10.9,�L
2019/04/14,22:40,0.762,1.118,0.769,1.416,1.031,0.441,0.770,0.733,��쓌,10.2,�L
2019/04/14,22:50,0.766,1.118,0.769,1.417,1.032,0.440,0.771,0.731,��,8.5,�L
2019/04/14,23:00,0.765,1.117,0.771,1.415,1.030,0.440,0.771,0.731,��,9.5,�L
2019/04/14,23:10,0.763,1.117,0.769,1.416,1.030,0.441,0.770,0.733,��,9.5,�L
2019/04/14,23:20,0.764,1.113,0.768,1.414,1.027,0.440,0.770,0.730,��,8.8,�L
2019/04/14,23:30,0.759,1.108,0.766,1.409,1.023,0.439,0.769,0.729,��,8.8,�L
2019/04/14,23:40,0.757,1.105,0.768,1.409,1.022,0.439,0.768,0.729,��,7.3,�L
2019/04/14,23:50,0.756,1.103,0.762,1.406,1.019,0.438,0.768,0.728,��쓌,6.4,�L
